| time (UTC) | temp F | wind direction | speed MPH | gust MPH | rain 1hr in | rain 24hr in | rain mn in | humidity % | barometer mb |
| 20260831190934 | 72 | 52 | 1.0 | 6.0 | 0.00 | 0.00 | 0.00 | 41 | 1012.5 |
| 20260831185941 | 71 | 52 | 0.0 | 4.0 | 0.00 | 0.00 | 0.00 | 42 | 1012.7 |
| 20260831184946 | 71 | 53 | 1.0 | 6.0 | 0.00 | 0.00 | 0.00 | 42 | 1012.9 |
| 20260831183929 | 71 | 52 | 1.0 | 3.0 | 0.00 | 0.00 | 0.00 | 44 | 1013.1 |
| 20260831182935 | 70 | 52 | 3.0 | 5.0 | 0.00 | 0.00 | 0.00 | 44 | 1013.1 |
| 20260831181946 | 70 | 53 | 1.0 | 3.0 | 0.00 | 0.00 | 0.00 | 45 | 1013.2 |
| 20260831180929 | 69 | 52 | 1.0 | 4.0 | 0.00 | 0.00 | 0.00 | 43 | 1013.2 |
| 20260831175931 | 69 | 52 | 0.0 | 0.0 | 0.00 | 0.00 | 0.00 | 43 | 1013.5 |
| 20260831174936 | 68 | 53 | 0.0 | 3.0 | 0.00 | 0.00 | 0.00 | 44 | 1013.6 |
| 20260831173944 | 68 | 52 | 2.0 | 4.0 | 0.00 | 0.00 | 0.00 | 46 | 1013.7 |
| 20260831172947 | 67 | 52 | 0.0 | 5.0 | 0.00 | 0.00 | 0.00 | 48 | 1013.7 |
| 20260831171931 | 67 | 53 | 0.0 | 2.0 | 0.00 | 0.00 | 0.00 | 47 | 1013.7 |
| 20260831170934 | 67 | 53 | 0.0 | 4.0 | 0.00 | 0.00 | 0.00 | 48 | 1013.8 |
| 20260831170001 | 66 | 53 | 0.0 | 0.0 | 0.00 | 0.00 | 0.00 | 46 | 1013.7 |
| 20260831164943 | 66 | 53 | 0.0 | 0.0 | 0.00 | 0.00 | 0.00 | 46 | 1013.7 |
| 20260831163926 | 65 | 52 | 0.0 | 0.0 | 0.00 | 0.00 | 0.00 | 46 | 1013.7 |
| 20260831162933 | 64 | 52 | 0.0 | 0.0 | 0.00 | 0.00 | 0.00 | 47 | 1013.9 |
| 20260831161941 | 64 | 53 | 0.0 | 0.0 | 0.00 | 0.00 | 0.00 | 49 | 1014.0 |
| 20260831160944 | 63 | 52 | 0.0 | 0.0 | 0.00 | 0.00 | 0.00 | 51 | 1014.0 |
| 20260831155948 | 62 | 52 | 0.0 | 0.0 | 0.00 | 0.00 | 0.00 | 51 | 1014.0 |
| 20260831154930 | 61 | 52 | 0.0 | 0.0 | 0.00 | 0.00 | 0.00 | 52 | 1014.1 |
| 20260831153941 | 60 | 53 | 0.0 | 0.0 | 0.00 | 0.00 | 0.00 | 52 | 1014.1 |
| 20260831152943 | 59 | 53 | 0.0 | 0.0 | 0.00 | 0.00 | 0.00 | 50 | 1014.2 |
| 20260831152005 | 59 | 53 | 0.0 | 0.0 | 0.00 | 0.00 | 0.00 | 51 | 1014.2 |
| 20260831150948 | 58 | 53 | 0.0 | 0.0 | 0.00 | 0.00 | 0.00 | 50 | 1014.1 |
| 20260831150009 | 58 | 53 | 0.0 | 0.0 | 0.00 | 0.00 | 0.00 | 51 | 1014.1 |
| 20260831144934 | 57 | 53 | 0.0 | 0.0 | 0.00 | 0.00 | 0.00 | 55 | 1014.1 |
| 20260831143941 | 57 | 52 | 0.0 | 2.0 | 0.00 | 0.00 | 0.00 | 53 | 1014.0 |
| 20260831142945 | 57 | 51 | 1.0 | 4.0 | 0.00 | 0.00 | 0.00 | 52 | 1014.0 |
| 20260831141948 | 56 | 51 | 0.0 | 0.0 | 0.00 | 0.00 | 0.00 | 53 | 1013.9 |
| 20260831140936 | 56 | 51 | 0.0 | 6.0 | 0.00 | 0.00 | 0.00 | 54 | 1013.9 |
| 20260831135939 | 55 | 51 | 1.0 | 6.0 | 0.00 | 0.00 | 0.00 | 53 | 1013.9 |
| 20260831133936 | 56 | 51 | 0.0 | 0.0 | 0.00 | 0.00 | 0.00 | 53 | 1013.8 |
| 20260831132940 | 56 | 51 | 0.0 | 8.0 | 0.00 | 0.00 | 0.00 | 53 | 1013.8 |
| 20260831131948 | 55 | 51 | 0.0 | 3.0 | 0.00 | 0.00 | 0.00 | 53 | 1013.8 |
| 20260831130950 | 56 | 51 | 0.0 | 1.0 | 0.00 | 0.00 | 0.00 | 54 | 1013.7 |
| 20260831124949 | 56 | 51 | 0.0 | 3.0 | 0.00 | 0.00 | 0.00 | 53 | 1013.7 |
| 20260831123953 | 56 | 51 | 1.0 | 6.0 | 0.00 | 0.00 | 0.00 | 52 | 1013.7 |
| 20260831122936 | 56 | 49 | 0.0 | 4.0 | 0.00 | 0.00 | 0.00 | 53 | 1013.7 |
| 20260831121944 | 56 | 49 | 0.0 | 4.0 | 0.00 | 0.00 | 0.00 | 52 | 1013.7 |
| 20260831120947 | 56 | 49 | 0.0 | 4.0 | 0.00 | 0.00 | 0.00 | 52 | 1013.7 |
| 20260831115930 | 56 | 49 | 0.0 | 1.0 | 0.00 | 0.00 | 0.00 | 52 | 1013.8 |
| 20260831114952 | 56 | 49 | 0.0 | 1.0 | 0.00 | 0.00 | 0.00 | 51 | 1013.9 |
| 20260831113943 | 57 | 49 | 0.0 | 0.0 | 0.00 | 0.00 | 0.00 | 51 | 1013.9 |
| 20260831112947 | 57 | 49 | 0.0 | 3.0 | 0.00 | 0.00 | 0.00 | 51 | 1013.8 |
| 20260831111930 | 57 | 49 | 0.0 | 5.0 | 0.00 | 0.00 | 0.00 | 51 | 1013.9 |
| 20260831110932 | 57 | 49 | 0.0 | 4.0 | 0.00 | 0.00 | 0.00 | 51 | 1013.9 |
| 20260831105959 | 57 | 49 | 0.0 | 5.0 | 0.00 | 0.00 | 0.00 | 51 | 1013.9 |
| 20260831104943 | 57 | 49 | 0.0 | 3.0 | 0.00 | 0.00 | 0.00 | 51 | 1013.9 |
| 20260831103945 | 57 | 48 | 0.0 | 0.0 | 0.00 | 0.00 | 0.00 | 51 | 1013.9 |
| 20260831102930 | 57 | 48 | 0.0 | 0.0 | 0.00 | 0.00 | 0.00 | 51 | 1014.0 |
| 20260831101940 | 57 | 48 | 0.0 | 0.0 | 0.00 | 0.00 | 0.00 | 51 | 1014.0 |
| 20260831100943 | 57 | 48 | 0.0 | 0.0 | 0.00 | 0.00 | 0.00 | 51 | 1014.1 |
| 20260831095948 | 57 | 49 | 0.0 | 0.0 | 0.00 | 0.00 | 0.00 | 51 | 1014.1 |
| 20260831095010 | 57 | 48 | 0.0 | 0.0 | 0.00 | 0.00 | 0.00 | 51 | 1014.1 |
| 20260831093932 | 57 | 48 | 0.0 | 0.0 | 0.00 | 0.00 | 0.00 | 51 | 1014.2 |
| 20260831092940 | 57 | 49 | 0.0 | 1.0 | 0.00 | 0.00 | 0.00 | 51 | 1014.3 |
| 20260831091943 | 58 | 49 | 0.0 | 3.0 | 0.00 | 0.00 | 0.00 | 51 | 1014.4 |
| 20260831090929 | 58 | 48 | 0.0 | 0.0 | 0.00 | 0.00 | 0.00 | 51 | 1014.5 |
| 20260831085933 | 58 | 48 | 0.0 | 0.0 | 0.00 | 0.00 | 0.00 | 51 | 1014.5 |
| 20260831085000 | 58 | 48 | 0.0 | 0.0 | 0.00 | 0.00 | 0.00 | 50 | 1014.6 |
| 20260831083942 | 58 | 48 | 0.0 | 7.0 | 0.00 | 0.00 | 0.00 | 50 | 1014.7 |
| 20260831082929 | 58 | 45 | 0.0 | 1.0 | 0.00 | 0.00 | 0.00 | 51 | 1014.7 |
| 20260831081935 | 58 | 46 | 0.0 | 2.0 | 0.00 | 0.00 | 0.00 | 52 | 1014.7 |
| 20260831080945 | 58 | 46 | 0.0 | 3.0 | 0.00 | 0.00 | 0.00 | 52 | 1014.7 |
| 20260831075929 | 58 | 46 | 0.0 | 0.0 | 0.00 | 0.00 | 0.00 | 52 | 1014.7 |
| 20260831074932 | 58 | 45 | 0.0 | 0.0 | 0.00 | 0.00 | 0.00 | 53 | 1014.7 |
| 20260831073934 | 58 | 45 | 0.0 | 0.0 | 0.00 | 0.00 | 0.00 | 53 | 1014.7 |
| 20260831072941 | 58 | 45 | 0.0 | 0.0 | 0.00 | 0.00 | 0.00 | 53 | 1014.9 |
| 20260831071944 | 58 | 45 | 0.0 | 1.0 | 0.00 | 0.00 | 0.00 | 54 | 1014.8 |
| 20260831070928 | 57 | 45 | 0.0 | 5.0 | 0.00 | 0.00 | 0.00 | 54 | 1014.9 |
| 20260831065933 | 57 | 45 | 0.0 | 0.0 | 0.00 | 0.00 | 0.00 | 54 | 1014.9 |
| 20260831065000 | 57 | 45 | 0.0 | 2.0 | 0.00 | 0.00 | 0.00 | 55 | 1014.9 |
| 20260831063942 | 56 | 45 | 0.0 | 2.0 | 0.00 | 0.00 | 0.00 | 56 | 1014.9 |
| 20260831062946 | 56 | 45 | 0.0 | 0.0 | 0.00 | 0.00 | 0.00 | 57 | 1014.9 |
| 20260831061930 | 56 | 45 | 0.0 | 0.0 | 0.00 | 0.00 | 0.00 | 57 | 1015.0 |
| 20260831060935 | 56 | 45 | 0.0 | 0.0 | 0.00 | 0.00 | 0.00 | 56 | 1015.0 |
| 20260831055939 | 57 | 45 | 0.0 | 0.0 | 0.00 | 0.00 | 0.00 | 56 | 1015.0 |
| 20260831054942 | 57 | 45 | 0.0 | 0.0 | 0.00 | 0.00 | 0.00 | 57 | 1015.0 |
| 20260831053946 | 57 | 45 | 0.0 | 0.0 | 0.00 | 0.00 | 0.00 | 56 | 1015.1 |
| 20260831052934 | 57 | 45 | 0.0 | 0.0 | 0.00 | 0.00 | 0.00 | 57 | 1015.1 |
| 20260831051009 | 57 | 45 | 0.0 | 0.0 | 0.00 | 0.00 | 0.00 | 57 | 1015.1 |
| 20260831045930 | 57 | 45 | 0.0 | 0.0 | 0.00 | 0.00 | 0.00 | 57 | 1015.2 |
| 20260831044934 | 57 | 45 | 0.0 | 0.0 | 0.00 | 0.00 | 0.00 | 57 | 1015.2 |
| 20260831043958 | 57 | 45 | 0.0 | 0.0 | 0.00 | 0.00 | 0.00 | 57 | 1015.2 |
| 20260831042943 | 57 | 45 | 0.0 | 0.0 | 0.00 | 0.00 | 0.00 | 57 | 1015.2 |
| 20260831041929 | 58 | 45 | 0.0 | 0.0 | 0.00 | 0.00 | 0.00 | 56 | 1015.2 |
| 20260831040935 | 58 | 45 | 0.0 | 0.0 | 0.00 | 0.00 | 0.00 | 56 | 1015.3 |
| 20260831035937 | 59 | 45 | 0.0 | 0.0 | 0.00 | 0.00 | 0.00 | 56 | 1015.2 |
| 20260831034945 | 60 | 45 | 0.0 | 0.0 | 0.00 | 0.00 | 0.00 | 55 | 1015.2 |
| 20260831033948 | 61 | 45 | 0.0 | 0.0 | 0.00 | 0.00 | 0.00 | 53 | 1015.1 |
| 20260831032931 | 62 | 45 | 0.0 | 0.0 | 0.00 | 0.00 | 0.00 | 51 | 1015.1 |
| 20260831031934 | 64 | 45 | 0.0 | 0.0 | 0.00 | 0.00 | 0.00 | 48 | 1015.1 |
| 20260831030942 | 65 | 45 | 0.0 | 0.0 | 0.00 | 0.00 | 0.00 | 47 | 1015.0 |
| 20260831025944 | 66 | 45 | 0.0 | 0.0 | 0.00 | 0.00 | 0.00 | 44 | 1015.0 |
| 20260831024948 | 68 | 45 | 0.0 | 0.0 | 0.00 | 0.00 | 0.00 | 45 | 1014.9 |
| 20260831023932 | 71 | 45 | 0.0 | 0.0 | 0.00 | 0.00 | 0.00 | 40 | 1014.7 |
| 20260831021952 | 74 | 45 | 0.0 | 0.0 | 0.00 | 0.00 | 0.00 | 40 | 1014.6 |
| 20260831020955 | 75 | 45 | 0.0 | 0.0 | 0.00 | 0.00 | 0.00 | 38 | 1014.5 |
| 20260831015936 | 75 | 45 | 0.0 | 0.0 | 0.00 | 0.00 | 0.00 | 39 | 1014.6 |
| 20260831014939 | 75 | 45 | 0.0 | 0.0 | 0.00 | 0.00 | 0.00 | 37 | 1014.4 |
| 20260831013929 | 76 | 45 | 0.0 | 0.0 | 0.00 | 0.00 | 0.00 | 37 | 1014.5 |
| 20260831012935 | 77 | 45 | 0.0 | 0.0 | 0.00 | 0.00 | 0.00 | 39 | 1014.6 |
| 20260831011941 | 77 | 45 | 0.0 | 0.0 | 0.00 | 0.00 | 0.00 | 36 | 1014.6 |
| 20260831010945 | 77 | 45 | 0.0 | 0.0 | 0.00 | 0.00 | 0.00 | 37 | 1014.7 |
| 20260831005932 | 77 | 45 | 0.0 | 0.0 | 0.00 | 0.00 | 0.00 | 37 | 1014.8 |
| 20260831004936 | 77 | 45 | 0.0 | 0.0 | 0.00 | 0.00 | 0.00 | 36 | 1014.8 |
| 20260831003940 | 78 | 45 | 0.0 | 0.0 | 0.00 | 0.00 | 0.00 | 36 | 1014.9 |
| 20260831002943 | 77 | 45 | 0.0 | 1.0 | 0.00 | 0.00 | 0.00 | 38 | 1014.9 |
| 20260831002005 | 77 | 45 | 3.0 | 8.0 | 0.00 | 0.00 | 0.00 | 34 | 1014.9 |
| 20260831000932 | 77 | 45 | 0.0 | 4.0 | 0.00 | 0.00 | 0.00 | 38 | 1014.9 |
| 20260830235934 | 77 | 45 | 0.0 | 6.0 | 0.00 | 0.00 | 0.00 | 38 | 1015.0 |
| 20260830234937 | 76 | 45 | 1.0 | 7.0 | 0.00 | 0.00 | 0.00 | 36 | 1015.2 |
| 20260830232937 | 76 | 45 | 5.0 | 10.0 | 0.00 | 0.00 | 0.00 | 35 | 1015.3 |
| 20260830231944 | 77 | 45 | 0.0 | 8.0 | 0.00 | 0.00 | 0.00 | 37 | 1015.3 |
| 20260830230946 | 77 | 45 | 0.0 | 0.0 | 0.00 | 0.00 | 0.00 | 34 | 1015.3 |
| 20260830225949 | 76 | 45 | 0.0 | 7.0 | 0.00 | 0.00 | 0.00 | 33 | 1015.3 |
| 20260830224932 | 76 | 45 | 0.0 | 6.0 | 0.00 | 0.00 | 0.00 | 34 | 1015.5 |
| 20260830223942 | 75 | 45 | 3.0 | 10.0 | 0.00 | 0.00 | 0.00 | 34 | 1015.5 |
| 20260830222945 | 75 | 45 | 5.0 | 13.0 | 0.00 | 0.00 | 0.00 | 35 | 1015.5 |
| 20260830221931 | 75 | 45 | 0.0 | 10.0 | 0.00 | 0.00 | 0.00 | 35 | 1015.7 |
| 20260830220936 | 74 | 45 | 6.0 | 12.0 | 0.00 | 0.00 | 0.00 | 35 | 1015.9 |
| 20260830220001 | 74 | 46 | 9.0 | 12.0 | 0.00 | 0.00 | 0.00 | 35 | 1016.1 |
| 20260830214947 | 74 | 46 | 7.0 | 13.0 | 0.00 | 0.00 | 0.00 | 36 | 1016.1 |
| 20260830213950 | 74 | 46 | 6.0 | 12.0 | 0.00 | 0.00 | 0.00 | 37 | 1016.2 |
| 20260830212934 | 74 | 46 | 4.0 | 12.0 | 0.00 | 0.00 | 0.00 | 37 | 1016.3 |
| 20260830212001 | 74 | 45 | 8.0 | 13.0 | 0.00 | 0.00 | 0.00 | 38 | 1016.4 |
| 20260830210947 | 73 | 46 | 6.0 | 12.0 | 0.00 | 0.00 | 0.00 | 38 | 1016.4 |
| 20260830205931 | 73 | 46 | 2.0 | 8.0 | 0.00 | 0.00 | 0.00 | 42 | 1016.5 |
| 20260830204007 | 72 | 46 | 0.0 | 11.0 | 0.00 | 0.00 | 0.00 | 40 | 1016.7 |
| 20260830202930 | 71 | 46 | 9.0 | 13.0 | 0.00 | 0.00 | 0.00 | 38 | 1016.8 |
| 20260830201937 | 71 | 46 | 7.0 | 12.0 | 0.00 | 0.00 | 0.00 | 40 | 1016.9 |
| 20260830200940 | 71 | 46 | 7.0 | 12.0 | 0.00 | 0.00 | 0.00 | 39 | 1017.0 |
| 20260830195946 | 71 | 47 | 5.0 | 13.0 | 0.00 | 0.00 | 0.00 | 42 | 1017.0 |
| 20260830194949 | 71 | 47 | 3.0 | 10.0 | 0.00 | 0.00 | 0.00 | 41 | 1017.0 |
| 20260830193958 | 70 | 47 | 6.0 | 13.0 | 0.00 | 0.00 | 0.00 | 40 | 1017.2 |
| 20260830192941 | 70 | 46 | 0.0 | 14.0 | 0.00 | 0.00 | 0.00 | 45 | 1017.2 |
| 20260830192003 | 69 | 46 | 0.0 | 0.0 | 0.00 | 0.00 | 0.00 | 43 | 1017.4 |